map of VAN home
Great Circle Mapper logo
VAN - Airport
Location
City:  Van, Turkey
ICAO / IATA:LTCI / VAN

Details
Type:Airport (Aerodrome, Airfield)
Use:Public/Civil
Latitude:3828'06"N (38.468219)
Longitude:4319'56"E (43.332300)
Datum:WGS 1984
Elevation:5480 ft (1670 m)
Runways:1
Longest:9022 × 148 ft (2750 × 45 m), paved

Time
Time Zone:UTC+2 (DST+3)
Local Time:

Weather
METAR:LTCI 311538Z 21007KT 9999 FEW025CB SCT030 BKN070 10/03 Q1013 NOSIG RMK RWY21 21008KT 160V230

Related Locations
Nearby:
Farthest:GMR: 11365 mi / 18290 km
Mangareva [Totegegie], Gambier Islands, PF

Find:

   beyond  
but within

Other Information
Maps:
NOTAMs:
Links:
Sources:

  
flag of Turkey   

Sectional Chart

Flight Planning
at skyvector.com

Satellite Image

Google Maps Satellite View

 

Copyright © 2004-2014 Karl L. Swartz. All rights reserved.
The Great Circle Mapper name and logo are trademarks of the Great Circle Mapper.
All other trademarks mentioned herein belong to their respective owners.
Please see credits for attibutions and further copyright information.

  Follow gcmap on Facebook Follow gcmap on Twitter

hCard Microformat

Geo Microformat